Theta_e
337 325 339 326 339 322 317 313 310 314 319 325 331 333 325 331 337 338 336 338 338 338 338 338 337 337 329 329 332 333 336 338 339 338 336 329 316 329 334 338 339 338 338
342 328 333 331 340 325 318 315 310 311 313 315 317 318 318 317 324 327 327 334 336 334 331 330 331 329 328 330 332 333 337 338 337 338 335 332 316 316 327 335 339 340 338
341 331 333 332 319 319 319 317 314 311 311 311 311 311 310 312 315 315 317 324 333 333 336 338 336 333 331 329 332 334 335 336 335 335 335 331 330 315 316 319 331 340 339
341 332 331 322 319 318 319 319 317 316 314 313 312 311 310 309 309 309 310 315 323 326 327 330 334 334 332 330 331 334 336 336 337 336 334 333 331 324 318 316 318 326 338
341 341 336 328 323 322 321 321 321 321 320 319 318 318 315 312 311 310 310 310 310 312 314 315 315 317 317 325 328 333 335 335 336 336 335 334 333 329 321 318 319 314 325
341 335 333 326 324 324 324 324 324 325 325 324 323 323 324 318 316 319 321 322 319 314 313 312 311 310 310 311 315 324 333 335 336 335 334 334 333 324 329 320 318 320 319
339 332 322 322 322 323 323 321 323 327 336 336 334 330 328 328 328 331 333 334 331 329 330 330 330 328 324 320 314 313 330 336 335 334 334 335 334 329 333 328 321 319 321
339 332 325 329 333 339 335 330 335 336 337 338 337 337 338 337 335 336 334 335 334 333 332 332 333 332 332 332 331 330 319 324 334 334 333 335 334 331 319 335 328 322 319
335 338 335 337 338 337 338 337 336 337 337 337 337 336 335 336 335 336 335 334 333 332 332 332 332 332 331 331 331 331 328 328 326 330 331 333 332 331 317 325 335 330 324
338 341 337 333 333 337 337 338 336 336 336 336 334 333 331 330 331 334 331 331 330 328 329 329 327 330 329 329 328 332 332 332 331 328 325 324 325 324 316 317 328 336 332
341 341 340 337 335 335 336 336 335 336 333 329 327 325 323 327 327 326 325 325 325 325 323 321 323 323 324 325 326 327 329 330 328 329 330 331 329 329 322 315 317 326 335
341 342 340 338 336 336 335 336 336 333 330 327 323 321 320 317 314 311 307 307 307 306 306 306 306 306 306 306 311 318 321 323 324 326 326 327 329 329 329 327 320 317 324
340 342 341 340 339 334 335 335 328 325 325 323 319 319 316 309 307 306 307 307 307 308 308 308 308 307 307 307 307 307 308 310 317 321 321 323 325 325 324 327 328 326 318
341 341 340 340 336 335 333 328 325 323 319 315 312 310 308 307 308 308 308 308 308 308 307 307 307 307 306 306 306 306 307 307 308 309 310 311 312 310 307 307 319 327 328
340 340 340 339 338 336 332 326 323 319 315 310 306 306 307 308 309 309 308 308 308 307 307 307 307 307 307 307 307 306 306 306 306 307 307 308 308 308 308 307 306 312 326
340 339 338 337 336 333 328 325 320 316 310 306 306 308 309 309 308 308 308 308 308 308 308 307 306 306 306 305 305 305 305 306 306 306 306 306 307 307 307 307 307 307 306
338 337 336 332 329 327 323 317 312 310 306 306 307 308 308 308 308 308 308 308 308 308 307 307 307 306 306 305 304 303 303 303 303 304 305 306 306 306 306 306 306 306 306
336 335 332 328 324 318 314 312 309 306 306 306 307 308 308 308 308 308 308 308 307 307 307 307 306 306 305 304 303 303 302 302 303 303 304 304 305 305 306 306 306 307 306
333 332 328 320 315 313 312 309 306 306 306 306 306 307 307 307 307 307 307 307 307 307 307 306 306 305 305 304 303 302 302 302 303 304 305 306 306 307 307 308 307 307 306
328 325 321 314 312 311 311 308 308 307 308 307 307 307 307 307 307 307 307 307 307 306 306 305 305 305 304 303 303 302 303 303 303 304 305 306 306 307 308 308 308 308 308
319 318 315 312 311 311 309 308 308 307 307 308 307 307 307 307 307 307 306 306 306 306 305 305 304 304 304 303 302 302 302 302 303 303 304 305 306 307 308 308 304 304 305
317 314 313 312 311 310 309 308 309 309 310 310 309 309 309 308 307 306 306 306 305 305 305 304 304 303 303 302 301 301 301 301 304 302 303 305 304 307 306 303 303 305 305
314 313 312 312 310 309 309 309 310 310 310 310 309 310 309 309 310 309 308 306 306 305 305 304 304 303 302 302 301 301 301 301 300 301 300 300 300 300 299 299 301 303 304
314 312 312 311 310 310 309 309 310 310 310 310 309 311 311 310 310 309 307 306 305 305 304 304 303 302 302 301 300 299 299 300 300 300 299 298 298 298 298 299 300 300 300
313 312 312 311 311 310 310 310 309 309 309 309 310 310 310 310 309 308 306 305 305 305 304 303 303 302 301 300 299 298 298 298 298 299 299 297 297 297 298 298 298 298 301
313 312 312 311 311 310 310 310 309 309 309 308 309 310 310 309 308 306 305 305 304 304 303 303 302 301 299 298 298 298 297 297 297 297 298 298 297 297 297 298 298 298 298
Wind_Speed
7 7 8 5 6 7 7 8 8 8 7 7 6 8 8 7 10 13 11 13 13 13 13 14 14 14 14 18 20 22 23 21 18 19 25 23 17 20 15 16 18 17 16
7 9 8 6 6 5 8 8 9 9 8 7 5 5 6 7 5 6 7 8 9 10 10 10 10 11 13 16 18 18 19 20 18 16 19 21 19 16 16 15 16 17 15
6 5 9 7 6 7 8 8 10 10 9 9 9 8 9 9 8 7 6 6 7 9 11 11 11 10 11 13 15 17 16 18 18 15 16 17 23 16 15 14 11 14 16
5 10 9 7 7 8 8 8 9 10 10 9 9 10 10 10 10 10 9 8 7 6 7 7 8 9 9 11 12 14 16 17 14 13 11 12 18 18 15 13 13 9 12
8 6 4 6 7 7 7 8 8 8 8 9 9 9 9 10 10 11 12 11 10 9 8 8 8 8 9 9 10 10 12 14 11 8 10 12 15 15 15 14 13 12 8
8 2 5 5 7 7 8 8 8 8 8 8 8 9 9 9 9 10 11 11 12 12 12 12 12 12 12 10 9 8 8 11 12 9 7 10 13 13 13 15 12 12 11
8 3 7 9 10 11 11 11 11 12 11 10 10 9 9 9 10 11 11 11 12 13 14 14 14 14 14 14 13 10 9 9 8 6 7 8 11 12 11 12 13 11 10
6 7 7 10 11 11 10 12 10 9 8 7 8 8 9 8 8 8 9 8 9 9 10 11 11 12 13 13 13 14 10 6 5 5 4 6 9 12 7 8 9 11 9
3 6 4 7 8 8 9 8 7 7 6 5 5 5 5 4 4 4 5 6 7 8 8 8 8 7 8 10 11 12 12 10 4 2 4 6 9 11 8 2 5 6 8
8 10 10 9 6 5 7 7 6 5 5 5 5 5 4 5 5 3 4 5 6 7 7 6 6 6 6 6 8 10 10 8 8 6 8 9 9 11 9 4 2 3 4
17 14 9 8 6 6 5 5 4 3 2 4 3 4 7 4 3 4 5 5 5 5 5 6 5 4 4 3 3 2 2 3 4 5 7 8 9 10 8 5 4 4 2
20 16 12 8 9 7 6 4 1 1 2 3 2 1 1 3 3 5 6 5 5 5 6 6 6 6 4 3 1 1 2 2 2 4 4 6 9 12 10 7 5 5 5
21 19 15 10 8 2 4 4 3 2 2 5 8 6 2 0 3 4 6 7 7 7 8 8 9 9 9 7 6 5 4 5 5 8 9 11 13 13 11 9 8 7 6
24 16 15 12 11 7 7 7 5 7 4 7 5 4 3 3 4 6 7 8 8 10 11 12 13 13 12 12 11 9 7 5 5 8 12 14 16 16 14 12 11 11 10
21 20 17 15 10 10 8 10 12 10 6 6 6 7 7 6 5 6 7 9 10 12 13 14 15 15 15 14 13 12 11 10 8 8 10 11 13 13 13 12 9 11 13
23 18 16 14 12 10 11 14 13 10 6 8 8 7 7 6 5 5 7 8 9 11 13 15 17 18 19 18 17 16 14 12 11 11 11 11 11 13 14 14 14 10 11
20 18 17 12 12 12 12 10 9 9 8 9 9 8 6 5 4 4 5 6 9 11 14 16 18 20 21 22 22 21 18 15 15 15 13 11 10 11 13 15 15 15 14
16 16 13 14 14 13 10 8 10 10 9 9 8 7 6 4 2 1 4 7 10 12 15 17 21 23 25 26 27 25 21 18 15 13 12 12 12 10 10 12 13 15 15
15 16 15 17 15 14 10 10 9 9 8 7 6 6 5 3 2 4 6 9 10 12 15 18 20 24 27 28 29 27 22 20 17 11 7 5 3 5 10 12 14 15 15
18 16 16 18 16 15 10 9 9 8 7 7 7 6 6 6 5 7 9 11 12 14 15 18 22 24 26 28 29 27 25 21 9 9 8 6 6 6 8 10 11 14 16
18 16 16 20 16 15 12 13 12 12 10 10 10 10 10 10 11 12 12 13 14 16 17 19 21 24 27 28 30 31 28 22 14 7 8 8 9 12 13 14 15 17 15
18 15 14 15 18 17 13 14 10 8 8 8 10 12 11 15 16 17 16 17 17 17 18 20 22 25 27 26 26 27 18 29 3 10 13 13 18 19 20 22 21 17 16
18 15 13 12 16 15 14 13 13 12 14 16 16 15 17 16 17 17 18 20 19 19 21 22 23 25 27 26 23 19 10 8 33 23 29 27 24 25 24 21 21 22 22
19 15 14 14 18 18 17 16 18 19 19 17 15 15 17 19 19 19 22 21 21 22 24 24 26 27 28 28 26 23 21 24 27 26 34 34 34 28 23 21 19 19 22
19 19 18 15 15 15 15 16 16 18 18 18 17 17 17 17 17 21 18 20 19 24 27 27 29 30 28 28 27 28 28 28 27 30 35 41 37 34 30 28 26 26 23
17 17 16 18 14 13 14 17 18 19 19 20 20 21 18 17 18 18 18 20 23 27 28 31 32 30 29 29 29 29 30 30 31 31 34 34 40 41 38 35 33 31 30
Wind_Direction
144 163 150 131 118 73 78 75 80 94 109 104 96 72 72 83 82 77 77 74 74 75 73 70 69 65 57 64 67 72 70 59 47 44 35 31 48 67 79 73 72 76 83
127 156 150 128 120 100 94 84 82 86 89 90 88 72 62 78 91 75 76 79 74 68 64 60 60 56 58 64 72 78 69 64 51 43 41 33 42 56 67 80 78 69 76
136 140 137 125 115 114 101 92 86 82 83 79 77 74 70 74 78 71 68 77 72 72 73 66 60 55 57 62 72 84 78 70 61 50 40 25 33 45 56 68 82 77 76
136 123 132 115 112 116 109 100 91 83 80 76 72 69 67 67 67 67 66 70 68 64 64 63 53 49 50 55 71 81 77 61 61 52 29 24 25 35 49 58 64 89 82
148 126 113 125 118 116 112 104 94 88 82 76 70 66 64 65 66 66 66 67 66 61 57 51 42 32 34 47 64 85 82 74 53 58 33 28 15 25 44 54 61 68 100
135 127 170 146 125 119 109 105 103 96 86 80 75 69 68 70 68 65 62 60 60 60 58 57 54 47 46 46 53 72 95 82 71 74 42 14 2 17 39 50 57 62 69
170 130 139 127 119 112 98 102 104 100 89 77 71 66 63 64 65 66 65 58 60 59 58 56 55 55 53 53 53 55 95 91 81 56 16 6 359 12 34 42 52 59 60
128 122 132 124 115 111 102 102 99 91 82 77 67 62 66 70 75 69 66 64 52 42 44 43 46 53 54 51 54 54 56 118 105 60 8 12 357 352 14 32 40 50 59
154 153 121 130 122 118 119 110 95 79 65 60 43 48 25 23 38 36 38 44 38 31 32 35 41 47 45 48 52 63 60 59 49 11 6 336 331 342 347 16 27 35 44
181 188 156 160 126 145 133 119 89 63 46 52 9 345 23 53 57 54 37 39 34 34 36 35 35 35 28 33 52 82 71 50 38 3 349 333 329 328 326 320 324 10 20
181 189 172 157 138 150 147 128 83 49 75 80 46 17 22 44 48 36 36 38 26 19 13 16 18 20 1 3 16 84 92 67 17 25 334 326 316 323 333 317 306 280 314
184 180 186 181 168 173 169 155 126 147 166 133 143 140 38 39 41 46 49 50 45 36 33 33 25 24 14 19 4 269 255 237 257 307 316 309 305 302 307 309 309 290 265
184 183 181 177 181 127 201 192 177 153 203 184 176 203 222 119 57 62 72 72 64 58 50 38 32 27 18 7 360 349 309 264 245 261 276 282 286 292 297 291 280 282 279
174 174 175 181 170 174 199 183 191 236 221 199 198 184 187 147 119 90 78 72 63 53 44 36 31 26 19 11 360 351 336 312 283 257 271 281 287 294 297 286 271 264 260
173 163 172 174 192 196 221 186 206 231 239 192 187 163 154 139 124 102 80 67 58 51 43 34 26 20 13 8 1 352 342 328 312 293 282 282 293 300 304 307 297 262 256
169 160 162 172 192 214 211 208 219 227 202 178 167 153 147 137 128 97 80 62 49 41 29 21 15 10 4 356 351 344 333 321 312 307 300 292 290 296 301 302 301 298 271
187 184 178 185 205 220 227 223 217 206 185 170 160 154 154 148 133 97 60 41 29 21 13 9 5 0 355 351 346 342 332 319 311 304 298 289 288 294 297 299 298 296 292
187 188 190 199 214 224 230 222 198 185 180 179 173 173 172 178 169 40 12 11 9 2 0 358 355 352 349 346 343 341 335 329 327 313 296 288 291 297 312 302 297 301 299
210 212 196 194 206 215 222 201 186 181 187 195 202 203 207 235 297 337 337 339 342 342 345 346 348 346 346 342 339 337 333 331 326 322 317 301 280 313 311 308 309 310 313
195 197 196 194 204 216 225 194 188 192 202 224 235 240 246 250 279 299 305 313 321 327 333 336 339 341 341 337 334 332 330 332 351 309 289 288 288 281 261 278 300 313 313
186 196 200 195 202 217 212 200 205 213 220 228 238 258 273 283 287 287 292 301 308 314 320 328 331 332 334 335 331 329 332 328 326 301 277 285 264 252 257 267 289 286 289
190 201 210 203 208 219 218 211 223 214 232 243 253 264 283 283 284 283 287 296 300 304 312 319 324 325 327 329 325 326 327 330 212 296 286 267 279 265 270 277 278 271 271
189 195 206 210 211 218 224 217 216 225 231 232 241 269 283 276 274 277 289 293 294 298 308 313 319 319 317 317 313 307 313 288 311 316 304 307 301 297 293 289 270 267 268
188 191 203 212 211 222 234 232 223 234 239 243 252 264 270 270 281 285 292 291 293 298 304 307 312 312 308 306 305 302 290 285 292 301 301 301 302 302 301 298 291 280 274
191 196 206 209 223 235 245 249 253 257 260 258 261 273 285 279 276 284 281 275 276 287 297 301 303 302 301 299 297 296 295 292 288 283 290 299 297 298 298 295 292 277 269
195 200 208 213 214 226 238 243 251 264 272 271 267 263 263 264 263 260 253 264 278 288 291 293 297 297 296 295 295 295 294 294 294 292 291 292 296 297 298 295 293 287 284